Schneifelwetter: Wetterstation Hallschlag, 537 m . NN
Wetterdaten: Freitag, 07.09.2012
Datum Zeit Temp. A. Feuchte A. Luftdruck Regen Wind Richtung Richtung Sonnenschein Helligkeit T Regen Taupunkt Windchill
07.09.2012 00:14 4,3 C 86 % 1024 hPa 0,0 l/m 0,0 km/h (0 Bft) NO 45 0 min 62,2 klux 0 min 2,2 C 4,3 C
07.09.2012 00:29 4,1 C 86 % 1024 hPa 0,0 l/m 0,0 km/h (0 Bft) NO 45 0 min 62,2 klux 0 min 2,0 C 4,1 C
07.09.2012 00:44 4,1 C 87 % 1024 hPa 0,0 l/m 0,0 km/h (0 Bft) NO 45 0 min 62,2 klux 0 min 2,1 C 4,1 C
07.09.2012 00:59 3,7 C 87 % 1024 hPa 0,0 l/m 0,0 km/h (0 Bft) NO 45 0 min 62,2 klux 0 min 1,7 C 3,7 C
07.09.2012 01:14 3,3 C 87 % 1024 hPa 0,0 l/m 0,0 km/h (0 Bft) NO 45 0 min 62,2 klux 0 min 1,3 C 3,3 C
07.09.2012 01:29 3,2 C 88 % 1024 hPa 0,0 l/m 0,0 km/h (0 Bft) NO 45 0 min 62,2 klux 0 min 1,4 C 3,2 C
07.09.2012 01:44 3,0 C 88 % 1024 hPa 0,0 l/m 0,0 km/h (0 Bft) NO 45 0 min 62,2 klux 0 min 1,2 C 3,0 C
07.09.2012 01:59 2,8 C 88 % 1024 hPa 0,0 l/m 0,0 km/h (0 Bft) NO 45 0 min 62,2 klux 0 min 1,0 C 2,8 C
07.09.2012 02:14 2,6 C 88 % 1024 hPa 0,0 l/m 0,0 km/h (0 Bft) NO 45 0 min 62,2 klux 0 min 0,8 C 2,6 C
07.09.2012 02:29 2,5 C 89 % 1024 hPa 0,0 l/m 0,0 km/h (0 Bft) NO 45 0 min 62,2 klux 0 min 0,9 C 2,5 C
07.09.2012 02:44 2,5 C 90 % 1024 hPa 0,0 l/m 0,0 km/h (0 Bft) NO 45 0 min 62,2 klux 0 min 1,0 C 2,5 C
07.09.2012 02:59 2,8 C 90 % 1024 hPa 0,0 l/m 0,0 km/h (0 Bft) NO 45 0 min 62,2 klux 0 min 1,3 C 2,8 C
07.09.2012 03:14 2,6 C 90 % 1024 hPa 0,0 l/m 0,0 km/h (0 Bft) NO 45 0 min 62,2 klux 0 min 1,1 C 2,6 C
07.09.2012 03:29 2,1 C 89 % 1024 hPa 0,0 l/m 0,0 km/h (0 Bft) NO 45 0 min 62,2 klux 0 min 0,5 C 2,1 C
07.09.2012 03:44 1,8 C 90 % 1024 hPa 0,0 l/m 0,0 km/h (0 Bft) NO 45 0 min 62,2 klux 0 min 0,3 C 1,8 C
07.09.2012 03:59 1,6 C 90 % 1024 hPa 0,0 l/m 0,0 km/h (0 Bft) NO 45 0 min 62,2 klux 0 min 0,1 C 1,6 C
07.09.2012 04:14 1,5 C 91 % 1023 hPa 0,0 l/m 0,0 km/h (0 Bft) NO 45 0 min 62,2 klux 0 min 0,2 C 1,5 C
07.09.2012 04:29 1,2 C 90 % 1024 hPa 0,0 l/m 0,0 km/h (0 Bft) NO 45 0 min 62,2 klux 0 min -0,3 C 1,2 C
07.09.2012 04:44 0,9 C 90 % 1024 hPa 0,0 l/m 0,0 km/h (0 Bft) NO 45 0 min 62,2 klux 0 min -0,6 C 0,9 C
07.09.2012 04:59 0,7 C 91 % 1024 hPa 0,0 l/m 0,0 km/h (0 Bft) NO 45 0 min 62,2 klux 0 min -0,6 C 0,7 C
07.09.2012 05:14 0,7 C 91 % 1024 hPa 0,0 l/m 0,0 km/h (0 Bft) NO 45 0 min 62,2 klux 0 min -0,6 C 0,7 C
07.09.2012 05:29 0,6 C 91 % 1024 hPa 0,0 l/m 0,0 km/h (0 Bft) NO 45 0 min 62,2 klux 0 min -0,7 C 0,6 C
07.09.2012 05:44 0,5 C 91 % 1024 hPa 0,0 l/m 0,0 km/h (0 Bft) NO 45 0 min 62,2 klux 0 min -0,8 C 0,5 C
07.09.2012 05:59 0,3 C 91 % 1024 hPa 0,0 l/m 0,0 km/h (0 Bft) NO 45 0 min 62,2 klux 0 min -1,0 C 0,3 C
07.09.2012 06:14 0,1 C 91 % 1024 hPa 0,0 l/m 0,0 km/h (0 Bft) NO 45 0 min 62,2 klux 0 min -1,2 C 0,1 C
07.09.2012 06:29 0,2 C 92 % 1023 hPa 0,0 l/m 0,0 km/h (0 Bft) NO 45 0 min 62,2 klux 0 min -0,9 C 0,2 C
07.09.2012 06:44 0,4 C 92 % 1024 hPa 0,0 l/m 0,0 km/h (0 Bft) NO 45 0 min 62,2 klux 0 min -0,7 C 0,4 C
07.09.2012 06:59 0,1 C 92 % 1024 hPa 0,0 l/m 0,0 km/h (0 Bft) NO 45 0 min 62,2 klux 0 min -1,0 C 0,1 C
07.09.2012 07:14 0,3 C 93 % 1024 hPa 0,0 l/m 0,0 km/h (0 Bft) NO 45 15 min 62,2 klux 0 min -0,7 C 0,3 C
07.09.2012 07:29 0,5 C 93 % 1024 hPa 0,0 l/m 0,0 km/h (0 Bft) NO 45 15 min 62,2 klux 0 min -0,5 C 0,5 C
07.09.2012 07:44 0,9 C 93 % 1024 hPa 0,0 l/m 0,0 km/h (0 Bft) NO 45 15 min 62,2 klux 0 min -0,1 C 0,9 C
07.09.2012 07:59 1,5 C 93 % 1024 hPa 0,0 l/m 0,0 km/h (0 Bft) NO 45 15 min 62,2 klux 0 min 0,5 C 1,5 C
07.09.2012 08:14 2,0 C 93 % 1024 hPa 0,0 l/m 0,0 km/h (0 Bft) NO 45 15 min 62,2 klux 0 min 1,0 C 2,0 C
07.09.2012 08:29 2,5 C 94 % 1024 hPa 0,0 l/m 0,0 km/h (0 Bft) NO 45 15 min 62,2 klux 0 min 1,6 C 2,5 C
07.09.2012 08:44 3,7 C 95 % 1023 hPa 0,0 l/m 0,0 km/h (0 Bft) NO 45 15 min 62,2 klux 0 min 3,0 C 3,7 C
07.09.2012 08:58 5,4 C 95 % 1023 hPa 0,0 l/m 0,0 km/h (0 Bft) NO 45 14 min 62,2 klux 0 min 4,7 C 5,4 C
07.09.2012 09:14 6,6 C 95 % 1024 hPa 0,0 l/m 0,0 km/h (0 Bft) NO 45 16 min 62,2 klux 0 min 5,9 C 6,6 C
07.09.2012 09:29 8,1 C 95 % 1024 hPa 0,0 l/m 0,0 km/h (0 Bft) NO 45 15 min 62,2 klux 0 min 7,3 C 8,1 C
07.09.2012 09:44 9,7 C 95 % 1023 hPa 0,0 l/m 0,0 km/h (0 Bft) NO 45 15 min 62,2 klux 0 min 8,9 C 9,7 C
07.09.2012 09:59 11,3 C 93 % 1024 hPa 0,0 l/m 6,1 km/h (2 Bft) SW45 225 15 min 62,2 klux 0 min 10,2 C 11,3 C
07.09.2012 10:14 13,0 C 87 % 1024 hPa 0,0 l/m 6,7 km/h (2 Bft) W-SW22.5 240 15 min 62,2 klux 0 min 10,9 C 12,8 C
07.09.2012 10:28 14,4 C 82 % 1024 hPa 0,0 l/m 10,0 km/h (2 Bft) S-SW45 205 14 min 62,2 klux 0 min 11,4 C 12,5 C
07.09.2012 10:44 15,4 C 78 % 1024 hPa 0,0 l/m 11,7 km/h (2 Bft) SW45 220 16 min 62,2 klux 0 min 11,6 C 12,8 C
07.09.2012 10:59 16,0 C 74 % 1024 hPa 0,0 l/m 12,9 km/h (3 Bft) SW45 220 15 min 62,2 klux 0 min 11,4 C 13,1 C
07.09.2012 11:14 16,2 C 75 % 1024 hPa 0,0 l/m 16,4 km/h (3 Bft) SW45 225 15 min 62,2 klux 0 min 11,8 C 12,2 C
07.09.2012 11:29 16,3 C 73 % 1024 hPa 0,0 l/m 17,7 km/h (3 Bft) W-SW67.5 240 15 min 62,2 klux 0 min 11,4 C 12,0 C
07.09.2012 11:44 16,7 C 71 % 1024 hPa 0,0 l/m 15,0 km/h (3 Bft) W-SW67.5 245 15 min 62,2 klux 0 min 11,4 C 13,3 C
07.09.2012 11:59 17,2 C 67 % 1024 hPa 0,0 l/m 17,2 km/h (3 Bft) W67.5 260 15 min 62,2 klux 0 min 11,0 C 13,3 C
07.09.2012 12:14 17,5 C 65 % 1024 hPa 0,0 l/m 17,8 km/h (3 Bft) W45 265 15 min 62,2 klux 0 min 10,8 C 13,5 C
07.09.2012 12:29 17,8 C 63 % 1024 hPa 0,0 l/m 15,2 km/h (3 Bft) W-SW67.5 250 15 min 62,2 klux 0 min 10,7 C 14,5 C
07.09.2012 12:44 18,0 C 61 % 1024 hPa 0,0 l/m 22,3 km/h (4 Bft) W22.5 260 15 min 62,2 klux 0 min 10,4 C 13,2 C
07.09.2012 12:59 18,3 C 58 % 1023 hPa 0,0 l/m 19,8 km/h (3 Bft) W-SW67.5 240 15 min 62,2 klux 0 min 9,9 C 14,1 C
07.09.2012 13:14 18,8 C 54 % 1023 hPa 0,0 l/m 26,4 km/h (4 Bft) W-SW67.5 240 15 min 62,2 klux 0 min 9,3 C 13,5 C
07.09.2012 13:29 19,0 C 51 % 1023 hPa 0,0 l/m 24,6 km/h (4 Bft) W45 270 15 min 62,2 klux 0 min 8,6 C 14,1 C
07.09.2012 13:44 19,2 C 47 % 1023 hPa 0,0 l/m 23,1 km/h (4 Bft) W45 275 15 min 62,2 klux 0 min 7,6 C 14,6 C
07.09.2012 13:59 19,2 C 45 % 1023 hPa 0,0 l/m 22,7 km/h (4 Bft) W45 270 15 min 62,2 klux 0 min 7,0 C 14,7 C
07.09.2012 14:14 19,4 C 44 % 1023 hPa 0,0 l/m 21,9 km/h (4 Bft) W22.5 265 15 min 62,2 klux 0 min 6,8 C 15,1 C
07.09.2012 14:29 19,7 C 43 % 1024 hPa 0,0 l/m 18,6 km/h (3 Bft) W22.5 270 15 min 62,2 klux 0 min 6,8 C 16,1 C
07.09.2012 14:44 19,7 C 42 % 1023 hPa 0,0 l/m 22,1 km/h (4 Bft) W45 280 15 min 62,2 klux 0 min 6,4 C 15,4 C
07.09.2012 14:59 19,8 C 38 % 1023 hPa 0,0 l/m 23,2 km/h (4 Bft) W22.5 275 15 min 62,2 klux 0 min 5,1 C 15,4 C
07.09.2012 15:14 20,1 C 41 % 1023 hPa 0,0 l/m 21,4 km/h (4 Bft) NW45 305 15 min 66,4 klux 0 min 6,4 C 16,1 C
07.09.2012 15:29 20,3 C 39 % 1023 hPa 0,0 l/m 24,4 km/h (4 Bft) W45 275 15 min 66,4 klux 0 min 5,9 C 15,9 C
07.09.2012 15:44 20,4 C 38 % 1023 hPa 0,0 l/m 18,7 km/h (3 Bft) W22.5 275 15 min 66,4 klux 0 min 5,6 C 17,0 C
07.09.2012 15:59 20,5 C 36 % 1023 hPa 0,0 l/m 23,6 km/h (4 Bft) W45 275 15 min 66,4 klux 0 min 4,9 C 16,3 C
07.09.2012 16:14 20,5 C 36 % 1023 hPa 0,0 l/m 19,1 km/h (3 Bft) W-NW45 285 15 min 66,4 klux 0 min 4,9 C 17,0 C
07.09.2012 16:29 20,6 C 38 % 1023 hPa 0,0 l/m 17,8 km/h (3 Bft) W22.5 270 15 min 66,4 klux 0 min 5,8 C 17,4 C
07.09.2012 16:44 20,7 C 41 % 1023 hPa 0,0 l/m 14,5 km/h (3 Bft) W-NW67.5 285 15 min 66,4 klux 0 min 7,0 C 18,2 C
07.09.2012 16:59 20,5 C 42 % 1023 hPa 0,0 l/m 20,6 km/h (4 Bft) W22.5 275 15 min 66,4 klux 0 min 7,1 C 16,7 C
07.09.2012 17:14 20,4 C 42 % 1023 hPa 0,0 l/m 19,4 km/h (3 Bft) W45 275 15 min 66,4 klux 0 min 7,1 C 16,8 C
07.09.2012 17:29 20,3 C 44 % 1023 hPa 0,0 l/m 19,0 km/h (3 Bft) W22.5 275 15 min 66,4 klux 0 min 7,6 C 16,8 C
07.09.2012 17:44 20,2 C 43 % 1023 hPa 0,0 l/m 15,5 km/h (3 Bft) W22.5 270 15 min 66,4 klux 0 min 7,2 C 17,4 C
07.09.2012 17:59 20,2 C 44 % 1023 hPa 0,0 l/m 12,3 km/h (3 Bft) W-NW22.5 295 15 min 66,4 klux 0 min 7,6 C 18,2 C
07.09.2012 18:14 20,0 C 46 % 1023 hPa 0,0 l/m 10,5 km/h (2 Bft) W-NW45 285 0 min 34,0 klux 0 min 8,0 C 18,5 C
07.09.2012 18:29 19,8 C 47 % 1023 hPa 0,0 l/m 12,5 km/h (3 Bft) W45 280 0 min 30,9 klux 0 min 8,2 C 17,7 C
07.09.2012 18:44 19,3 C 49 % 1023 hPa 0,0 l/m 11,1 km/h (2 Bft) W 260 0 min 27,5 klux 0 min 8,3 C 17,5 C
07.09.2012 18:59 18,8 C 50 % 1022 hPa 0,0 l/m 11,6 km/h (2 Bft) W 260 0 min 23,3 klux 0 min 8,2 C 16,8 C
07.09.2012 19:14 18,2 C 52 % 1023 hPa 0,0 l/m 9,5 km/h (2 Bft) W22.5 270 0 min 17,1 klux 0 min 8,2 C 16,8 C
07.09.2012 19:29 17,8 C 54 % 1022 hPa 0,0 l/m 6,3 km/h (2 Bft) W 270 0 min 13,8 klux 0 min 8,4 C 17,8 C
07.09.2012 19:44 17,5 C 55 % 1023 hPa 0,0 l/m 6,6 km/h (2 Bft) W 265 0 min 9,5 klux 0 min 8,4 C 17,4 C
07.09.2012 19:59 16,2 C 57 % 1023 hPa 0,0 l/m 0,1 km/h (0 Bft) W 265 0 min 2,05 klux 0 min 7,7 C 16,2 C
07.09.2012 20:14 15,0 C 60 % 1023 hPa 0,0 l/m 0,0 km/h (0 Bft) W 265 0 min 690 lux 0 min 7,3 C 15,0 C
07.09.2012 20:29 14,0 C 61 % 1023 hPa 0,0 l/m 0,0 km/h (0 Bft) W 265 0 min 185 lux 0 min 6,6 C 14,0 C
07.09.2012 20:44 13,2 C 64 % 1023 hPa 0,0 l/m 0,0 km/h (0 Bft) W 270 0 min 0 lux 0 min 6,5 C 13,2 C
07.09.2012 20:59 12,3 C 66 % 1023 hPa 0,0 l/m 0,0 km/h (0 Bft) W 270 0 min 0 lux 0 min 6,1 C 12,3 C
07.09.2012 21:14 11,8 C 68 % 1023 hPa 0,0 l/m 0,0 km/h (0 Bft) W 270 0 min 0 lux 0 min 6,1 C 11,8 C
07.09.2012 21:29 11,2 C 70 % 1023 hPa 0,0 l/m 0,0 km/h (0 Bft) W 270 0 min 0 lux 0 min 5,9 C 11,2 C
07.09.2012 21:44 10,7 C 71 % 1023 hPa 0,0 l/m 0,0 km/h (0 Bft) W 270 0 min 0 lux 0 min 5,7 C 10,7 C
07.09.2012 21:59 10,3 C 73 % 1023 hPa 0,0 l/m 0,0 km/h (0 Bft) W 270 0 min 0 lux 0 min 5,7 C 10,3 C
07.09.2012 22:14 10,0 C 73 % 1023 hPa 0,0 l/m 0,0 km/h (0 Bft) W 270 0 min 0 lux 0 min 5,4 C 10,0 C
07.09.2012 22:29 9,5 C 74 % 1023 hPa 0,0 l/m 0,0 km/h (0 Bft) W 270 0 min 0 lux 0 min 5,1 C 9,5 C
07.09.2012 22:44 9,0 C 76 % 1023 hPa 0,0 l/m 0,0 km/h (0 Bft) W 265 0 min 0 lux 0 min 5,0 C 9,0 C
07.09.2012 22:59 8,7 C 76 % 1023 hPa 0,0 l/m 0,0 km/h (0 Bft) W 265 0 min 0 lux 0 min 4,7 C 8,7 C
07.09.2012 23:14 8,4 C 78 % 1023 hPa 0,0 l/m 0,0 km/h (0 Bft) W 265 0 min 0 lux 0 min 4,8 C 8,4 C
07.09.2012 23:29 8,2 C 80 % 1023 hPa 0,0 l/m 0,0 km/h (0 Bft) W 265 0 min 0 lux 0 min 5,0 C 8,2 C
07.09.2012 23:44 7,9 C 80 % 1023 hPa 0,0 l/m 0,0 km/h (0 Bft) W 265 0 min 0 lux 0 min 4,7 C 7,9 C
07.09.2012 23:59 7,8 C 81 % 1023 hPa 0,0 l/m 0,0 km/h (0 Bft) W 265 0 min 0 lux 0 min 4,7 C 7,8 C
_ Min-Zeit 06:14 15:59 18:59 - 00:14 - - - - - 06:14 06:14
Minimum _ 0,1 C 36 % 1022 hPa - 0,0 km/h (0 Bft) - - - - - -1,2 C 0,1 C
_ Max-Zeit 16:44 08:44 00:14 00:14 13:14 - - 09:14 15:14 00:14 11:14 18:14
Maximum _ 20,7 C 95 % 1024 hPa 0,0 l/m 26,4 km/h
W-SW (4 Bft)
- - 16 min 66,4 klux 0 min 11,8 C 18,5 C
Durchschnitt _ 10,6 C 72 % 1024 hPa #0,0 l/m 6,9 km/h (2 Bft) W - #11:00 h 48,8 klux #0 min. 4,9 C 9,3 C